Woodlawn, VA

5:36 AM EDT on September 25, 2016 (GMT -0400)
Twin County

Weather History for KHLX - December, 2013

Change the Weather History Date:

Wednesday, December 11, 2013

  Actual Average (KBLF) Record (KBLF)
Temperature  
Mean Temperature 37 °F 38 °F  
Max Temperature 48 °F 46 °F 69 °F (2007)
Min Temperature 26 °F 30 °F -2 °F (1962)
Degree Days  
Heating Degree Days 28 27  
Month to date heating degree days 279  
Since 1 July heating degree days 1182  
Cooling Degree Days 0 0  
Month to date cooling degree days 0  
Year to date cooling degree days 853  
Moisture  
Dew Point 16 °F    
Average Humidity 49    
Maximum Humidity 74    
Minimum Humidity 20    
Precipitation  
Precipitation 0.00 in 0.10 in 1.53 in (2008)
Month to date precipitation 1.08  
Year to date precipitation 37.80  
Snow  
Snow 0.00 in - - ()
Month to date snowfall  
Since 1 July snowfall  
Snow Depth -    
Sea Level Pressure  
Sea Level Pressure 30.28 in    
Wind  
Wind Speed 9 mph (West)    
Max Wind Speed 18 mph    
Max Gust Speed 25 mph    
Visibility 10 miles    
Events      
T = Trace of Precipitation, MM = Missing Value Source: NWS Daily Summary

Daily Weather History Graph

Daily Weather History Graph

Search for Another Location

Airport or City:

Trip Planner

Search our weather history database for the weather conditions in past years. The results will help you decide how hot, cold, wet, or windy it might be!

Date:

Astronomy

Dec. 11, 2013 Rise Set
Actual Time 7:25 AM EST 5:07 PM EST
Civil Twilight 6:57 AM EST 5:36 PM EST
Nautical Twilight 6:24 AM EST 6:08 PM EST
Astronomical Twilight 5:53 AM EST 6:40 PM EST
Moon 1:33 PM EST (12/11) 1:52 AM EST (12/11)
Length of Visible Light 10h 39m
Length of Day
9h 41m
Waxing Gibbous, 71% of the Moon is Illuminated
Dec 11
Waxing Gibbous
Dec 17
Full
Dec 25
Last Quarter
Jan 1
New
Jan 7
First Quarter

Hourly Weather History & Observations

Time (EST) Temp. Windchill Dew Point Humidity Pressure Visibility Wind Dir Wind Speed Gust Speed Precip Events Conditions
12:15 AM 28.4 °F 18.0 °F 19.4 °F 69% 30.23 in 10.0 mi WNW 12.7 mph 18.4 mph N/A   Clear
12:35 AM 28.4 °F 18.0 °F 19.4 °F 69% 30.23 in 10.0 mi WNW 12.7 mph 17.3 mph N/A   Clear
12:55 AM 28.4 °F 18.5 °F 19.4 °F 69% 30.23 in 10.0 mi WNW 11.5 mph - N/A   Clear
1:15 AM 28.4 °F 18.0 °F 19.4 °F 69% 30.24 in 10.0 mi NW 12.7 mph - N/A   Clear
1:35 AM 28.4 °F 17.0 °F 17.6 °F 64% 30.23 in 10.0 mi NW 15.0 mph 20.7 mph N/A   Clear
1:55 AM 28.4 °F 18.5 °F 19.4 °F 69% 30.24 in 10.0 mi WNW 11.5 mph 20.7 mph N/A   Clear
2:15 AM 28.4 °F 19.7 °F 19.4 °F 69% 30.25 in 10.0 mi WNW 9.2 mph 19.6 mph N/A   Clear
2:35 AM 28.4 °F 17.0 °F 19.4 °F 69% 30.26 in 10.0 mi WNW 15.0 mph 20.7 mph N/A   Clear
2:55 AM 28.4 °F 15.8 °F 21.2 °F 74% 30.27 in 10.0 mi WNW 18.4 mph 24.2 mph N/A   Clear
3:15 AM 28.4 °F 17.5 °F 19.4 °F 69% 30.28 in 10.0 mi WNW 13.8 mph 21.9 mph N/A   Clear
3:35 AM 28.4 °F 18.0 °F 17.6 °F 64% 30.28 in 10.0 mi WNW 12.7 mph 21.9 mph N/A   Clear
3:55 AM 28.4 °F 19.1 °F 17.6 °F 64% 30.29 in 10.0 mi West 10.4 mph 18.4 mph N/A   Clear
4:15 AM 28.4 °F 18.5 °F 19.4 °F 69% 30.29 in 10.0 mi West 11.5 mph 19.6 mph N/A   Clear
4:35 AM 28.4 °F 19.7 °F 19.4 °F 69% 30.30 in 10.0 mi West 9.2 mph - N/A   Clear
4:55 AM 26.6 °F 18.2 °F 19.4 °F 74% 30.31 in 10.0 mi West 8.1 mph - N/A   Clear
5:15 AM 26.6 °F 20.0 °F 19.4 °F 74% 30.32 in 10.0 mi West 5.8 mph - N/A   Clear
5:35 AM 26.6 °F 18.2 °F 19.4 °F 74% 30.32 in 10.0 mi WNW 8.1 mph - N/A   Clear
5:55 AM 26.6 °F 18.2 °F 19.4 °F 74% 30.32 in 10.0 mi WNW 8.1 mph - N/A   Clear
6:15 AM 26.6 °F 19.1 °F 19.4 °F 74% 30.33 in 10.0 mi WNW 6.9 mph - N/A   Clear
6:35 AM 26.6 °F 18.2 °F 19.4 °F 74% 30.33 in 10.0 mi WNW 8.1 mph - N/A   Clear
6:55 AM 26.6 °F 21.2 °F 19.4 °F 74% 30.33 in 10.0 mi WNW 4.6 mph - N/A   Clear
7:15 AM 26.6 °F 18.2 °F 17.6 °F 69% 30.33 in 10.0 mi West 8.1 mph - N/A   Clear
7:35 AM 26.6 °F - 19.4 °F 74% 30.34 in 10.0 mi Calm Calm - N/A   Clear
7:55 AM 26.6 °F 22.6 °F 17.6 °F 69% 30.34 in 10.0 mi SW 3.5 mph - N/A   Clear
8:15 AM 26.6 °F - 17.6 °F 69% 30.34 in 10.0 mi Calm Calm - N/A   Clear
8:35 AM 26.6 °F - 19.4 °F 74% 30.34 in 10.0 mi Calm Calm - N/A   Clear
8:55 AM 28.4 °F 23.3 °F 19.4 °F 69% 30.35 in 10.0 mi WSW 4.6 mph - N/A   Clear
9:15 AM 28.4 °F 23.3 °F 19.4 °F 69% 30.36 in 10.0 mi SSW 4.6 mph - N/A   Clear
9:35 AM 30.2 °F 22.6 °F 19.4 °F 64% 30.36 in 10.0 mi SW 8.1 mph - N/A   Clear
9:55 AM 32.0 °F 25.6 °F 19.4 °F 60% 30.37 in 10.0 mi SW 6.9 mph - N/A   Clear
10:15 AM 33.8 °F 27.7 °F 17.6 °F 52% 30.37 in 10.0 mi WSW 6.9 mph - N/A   Clear
10:35 AM 35.6 °F 31.7 °F 15.8 °F 44% 30.36 in 10.0 mi WSW 4.6 mph - N/A   Clear
10:55 AM 37.4 °F 33.8 °F 15.8 °F 41% 30.36 in 10.0 mi WSW 4.6 mph - N/A   Clear
11:15 AM 37.4 °F 32.1 °F 12.2 °F 36% 30.35 in 10.0 mi West 6.9 mph - N/A   Clear
11:35 AM 39.2 °F 35.0 °F 14.0 °F 36% 30.34 in 10.0 mi WSW 5.8 mph - N/A   Clear
11:55 AM 39.2 °F 35.0 °F 12.2 °F 33% 30.33 in 10.0 mi West 5.8 mph - N/A   Clear
12:15 PM 42.8 °F 39.3 °F 14.0 °F 31% 30.31 in 10.0 mi WSW 5.8 mph - N/A   Clear
12:35 PM 42.8 °F 38.6 °F 15.8 °F 34% 30.30 in 10.0 mi WSW 6.9 mph - N/A   Clear
12:55 PM 44.6 °F 42.2 °F 15.8 °F 31% 30.29 in 10.0 mi WSW 4.6 mph - N/A   Clear
1:15 PM 44.6 °F 41.4 °F 15.8 °F 31% 30.28 in 10.0 mi SW 5.8 mph - N/A   Clear
1:35 PM 46.4 °F 42.4 °F 15.8 °F 29% 30.27 in 10.0 mi SW 8.1 mph - N/A   Clear
1:55 PM 46.4 °F 44.3 °F 15.8 °F 29% 30.26 in 10.0 mi WSW 4.6 mph - N/A   Clear
2:15 PM 46.4 °F - 15.8 °F 29% 30.25 in 10.0 mi Calm Calm - N/A   Clear
2:35 PM 48.2 °F - 15.8 °F 27% 30.25 in 10.0 mi West 10.4 mph - N/A   Clear
2:55 PM 46.4 °F 41.9 °F 12.2 °F 25% 30.25 in 10.0 mi West 9.2 mph - N/A   Clear
3:15 PM 48.2 °F - 12.2 °F 24% 30.25 in 10.0 mi WNW 9.2 mph - N/A   Clear
3:35 PM 46.4 °F 42.4 °F 8.6 °F 22% 30.24 in 10.0 mi West 8.1 mph - N/A   Clear
3:55 PM 46.4 °F 42.4 °F 8.6 °F 22% 30.24 in 10.0 mi West 8.1 mph - N/A   Clear
4:15 PM 46.4 °F 42.9 °F 6.8 °F 20% 30.25 in 10.0 mi West 6.9 mph - N/A   Clear
4:35 PM 46.4 °F 42.9 °F 6.8 °F 20% 30.25 in 10.0 mi West 6.9 mph - N/A   Clear
4:55 PM 44.6 °F 42.2 °F 6.8 °F 21% 30.25 in 10.0 mi West 4.6 mph - N/A   Clear
5:15 PM 42.8 °F 40.1 °F 8.6 °F 25% 30.25 in 10.0 mi West 4.6 mph - N/A   Clear
5:35 PM 42.8 °F 41.1 °F 6.8 °F 23% 30.25 in 10.0 mi West 3.5 mph - N/A   Clear
5:55 PM 41.0 °F 39.0 °F 8.6 °F 26% 30.26 in 10.0 mi West 3.5 mph - N/A   Clear
6:15 PM 41.0 °F 38.0 °F 5.0 °F 23% 30.26 in 10.0 mi West 4.6 mph - N/A   Clear
6:35 PM 41.0 °F 36.4 °F 3.2 °F 21% 30.26 in 10.0 mi West 6.9 mph - N/A   Clear
6:55 PM 41.0 °F 35.8 °F 3.2 °F 21% 30.26 in 10.0 mi West 8.1 mph 17.3 mph N/A   Clear
7:15 PM 39.2 °F 34.2 °F 6.8 °F 26% 30.26 in 10.0 mi WNW 6.9 mph - N/A   Clear
7:35 PM 39.2 °F 32.5 °F 8.6 °F 28% 30.26 in 10.0 mi West 10.4 mph - N/A   Clear
7:55 PM 39.2 °F 33.0 °F 12.2 °F 33% 30.26 in 10.0 mi West 9.2 mph - N/A   Clear
8:15 PM 39.2 °F 33.0 °F 14.0 °F 36% 30.27 in 10.0 mi West 9.2 mph - N/A   Clear
8:35 PM 39.2 °F 32.5 °F 15.8 °F 39% 30.26 in 10.0 mi West 10.4 mph 17.3 mph N/A   Clear
8:55 PM 39.2 °F 32.5 °F 15.8 °F 39% 30.26 in 10.0 mi West 10.4 mph 17.3 mph N/A   Clear
9:15 PM 37.4 °F 29.8 °F 17.6 °F 45% 30.26 in 10.0 mi West 11.5 mph 18.4 mph N/A   Clear
9:35 PM 37.4 °F 29.3 °F 17.6 °F 45% 30.25 in 10.0 mi WNW 12.7 mph - N/A   Clear
9:55 PM 37.4 °F 29.3 °F 19.4 °F 48% 30.26 in 10.0 mi West 12.7 mph 18.4 mph N/A   Clear
10:15 PM 37.4 °F 28.9 °F 19.4 °F 48% 30.26 in 10.0 mi West 13.8 mph 23.0 mph N/A   Clear
10:35 PM 37.4 °F 29.8 °F 21.2 °F 52% 30.25 in 10.0 mi WNW 11.5 mph 19.6 mph N/A   Clear
10:55 PM 37.4 °F 28.2 °F 19.4 °F 48% 30.26 in 10.0 mi WNW 16.1 mph 25.3 mph N/A   Clear
11:15 PM 35.6 °F 27.5 °F 21.2 °F 56% 30.25 in 10.0 mi WNW 11.5 mph - N/A   Clear
11:35 PM 35.6 °F 28.0 °F 21.2 °F 56% 30.25 in 10.0 mi WNW 10.4 mph 17.3 mph N/A   Clear
11:55 PM 33.8 °F 25.8 °F 19.4 °F 56% 30.25 in 10.0 mi WNW 10.4 mph - N/A   Clear